{"data":{"norad_id":58705,"intl_designator":"2024-002A","name":"STARLINK-11072 [DTC]","alt_names":[],"object_type":"PAYLOAD","status":"ACTIVE","operator":null,"country":"US","launch_date":"2024-01-03","launch_site_code":"AFWTR","launch_vehicle":null,"mission":null,"orbit_class":"UNKNOWN","rcs_meters":null,"size_class":null,"mass_kg":null,"dimensions":null,"purposes":["comms"],"wikipedia_slug":null,"has_3d_model":false,"image_url":null,"decayed_at":null,"tle_current":{"epoch":"2026-09-19T17:31:06.660480Z","epoch_age_seconds":216240,"freshness":"STALE","line1":"1 58705U 24002A   26262.72993820 -.00004270  00000+0 -30427-4 0  9995","line2":"2 58705  53.1595  37.4663 0001210  72.1057 288.0092 15.69690382156910","mean_motion":15.69690382,"eccentricity":0.000121,"inclination_deg":53.1595,"raan_deg":37.4663,"arg_perigee_deg":72.1057,"mean_anomaly_deg":288.0092,"bstar":-3.0427e-5,"rev_number":15691,"period_min":91.73783674238,"perigee_km":358.96760190438,"apogee_km":360.59817851781,"semimajor_km":6737.9198902111,"source":"CELESTRAK","updated_at":"2026-09-21T09:00:33.946561Z"}}}